Weather History for Montauk, NY

Change the Weather History Date:

Thursday, August 8, 2013

  Actual Average (KHTO) Record (KHTO)
Temperature  
Mean Temperature 72 °F -  
Max Temperature 77 °F 80 °F 95 °F (2001)
Min Temperature 70 °F 64 °F 50 °F (1992)
Cooling Degree Days 8    
Growing Degree Days 22 (Base 50)    
Moisture  
Dew Point 68 °F    
Average Humidity 85    
Maximum Humidity 93    
Minimum Humidity 76    
Precipitation  
Precipitation 0.00 in - - ()
Sea Level Pressure  
Sea Level Pressure 30.10 in    
Wind  
Wind Speed 7 mph (South)    
Max Wind Speed 9 mph    
Max Gust Speed 20 mph    
Averages and records for this station are not official NWS values.
T = Trace of Precipitation, MM = Missing Value Source: NWS Daily Summary

Daily Weather History Graph

Daily Weather History Graph

Search for Another Location

Airport:

Trip Planner

Search our weather history database for the weather conditions in past years. The results will help you decide how hot, cold, wet, or windy it might be!

Date:

Astronomy

Aug. 08, 2013 Rise Set
Actual Time 5:50 AM EDT 7:55 PM EDT
Civil Twilight 5:20 AM EDT 8:25 PM EDT
Nautical Twilight 4:43 AM EDT 9:02 PM EDT
Astronomical Twilight 4:02 AM EDT 9:42 PM EDT
Moon 7:36 AM EDT (8/8) 8:30 PM EDT (8/8)
Length of Visible Light 15h 05m
Length of Day
14h 04m
Waxing Crescent, 3% of the Moon is Illuminated
Aug 8
Waxing Crescent
Aug 14
First Quarter
Aug 20
Full
Aug 28
Last Quarter
Sep 5
New

Hourly Weather History & Observations

Time (EDT) Temp. Dew Point Humidity Pressure Visibility Wind Dir Wind Speed Gust Speed Precip Events Conditions
12:54 AM 70.0 °F 64.9 °F 84% 30.13 in - SSE 6.9 mph - N/A   Unknown
1:54 AM 70.0 °F 66.0 °F 87% 30.12 in - SSE 8.1 mph - N/A   Unknown
2:54 AM 71.1 °F 66.0 °F 84% 30.12 in - SSE 8.1 mph - N/A   Unknown
3:54 AM 71.1 °F 66.0 °F 84% 30.10 in - SSE 4.6 mph - N/A   Unknown
4:54 AM 71.1 °F 66.0 °F 84% 30.09 in - SSE 6.9 mph - N/A   Unknown
5:54 AM 71.1 °F 66.0 °F 84% 30.10 in - Variable 4.6 mph - N/A   Unknown
6:54 AM 71.1 °F 68.0 °F 90% 30.11 in - South 5.8 mph - N/A   Unknown
7:54 AM 72.0 °F 69.1 °F 91% 30.11 in - South 8.1 mph - N/A   Unknown
8:54 AM 72.0 °F 66.9 °F 84% 30.11 in - SSW 9.2 mph - N/A   Unknown
9:54 AM 72.0 °F 66.9 °F 84% 30.12 in - South 8.1 mph 17.3 mph N/A   Unknown
10:54 AM 73.0 °F 66.9 °F 81% 30.12 in - SSW 8.1 mph - N/A   Unknown
11:54 AM 73.9 °F 66.9 °F 79% 30.10 in - SSW 9.2 mph 19.6 mph N/A   Unknown
12:54 PM 75.9 °F 68.0 °F 76% 30.09 in - South 8.1 mph 16.1 mph N/A   Unknown
1:54 PM 75.9 °F 69.1 °F 79% 30.09 in - South 6.9 mph 18.4 mph N/A   Unknown
2:54 PM 75.9 °F 68.0 °F 76% 30.10 in - SSW 8.1 mph 18.4 mph N/A   Unknown
3:54 PM 75.9 °F 68.0 °F 76% 30.09 in - SSW 8.1 mph - N/A   Unknown
4:54 PM 75.0 °F 69.1 °F 82% 30.08 in - SSW 8.1 mph - N/A   Unknown
5:54 PM 75.9 °F 69.1 °F 79% 30.07 in - SSW 9.2 mph 18.4 mph N/A   Unknown
6:54 PM 73.9 °F 70.0 °F 87% 30.07 in - SSW 8.1 mph - N/A   Unknown
7:54 PM 73.0 °F 70.0 °F 90% 30.07 in - South 6.9 mph - N/A   Unknown
8:54 PM 72.0 °F 70.0 °F 93% 30.09 in - SSW 6.9 mph - N/A   Unknown
9:54 PM 72.0 °F 70.0 °F 93% 30.09 in - SSW 6.9 mph - N/A   Unknown
10:54 PM 73.0 °F 71.1 °F 93% 30.09 in - South 6.9 mph - N/A   Unknown
11:54 PM 72.0 °F 70.0 °F 93% 30.08 in - Variable 5.8 mph - N/A   Unknown